This is the latest recevied weather packets stored in our database for station/object K9APR. If no packets are shown the sender has not sent any weather packets the latest 10 day(s).
| Time | Temp. | Humidity | Pressure | Rain* | Wind** | Luminosity | Snow |
|---|---|---|---|---|---|---|---|
| 1788135737 | 75° F | 85% | 763.3 mmHg | 0 in | - | - | - |
| 1788135688 | 75° F | 85% | 763.3 mmHg | 0 in | - | - | - |
| 1788135204 | 75° F | 85% | 763.3 mmHg | 0 in | - | - | - |
| 1788135147 | 75° F | 85% | 763.3 mmHg | 0 in | - | - | - |
| 1788134608 | 76° F | 84% | 763.2 mmHg | 0 in | - | - | - |
| 1788134068 | 77° F | 83% | 763.3 mmHg | 0 in | - | - | - |
| 1788133527 | 78° F | 82% | 763.2 mmHg | 0 in | - | - | - |
| 1788132480 | 79° F | 80% | 763.3 mmHg | 0 in | - | - | - |
| 1788132448 | 79° F | 80% | 763.3 mmHg | 0 in | - | - | - |
| 1788131911 | 80° F | 80% | 763.3 mmHg | 0 in | - | - | - |
| 1788131368 | 81° F | 78% | 763.2 mmHg | 0 in | - | - | - |
| 1788130828 | 81° F | 77% | 763.1 mmHg | 0 in | - | - | - |
| 1788130288 | 81° F | 77% | 763 mmHg | 0 in | - | - | - |
| 1788129746 | 82° F | 75% | 763 mmHg | 0 in | - | - | - |
| 1788129208 | 82° F | 73% | 763 mmHg | 0 in | - | - | - |
| 1788128668 | 82° F | 72% | 763 mmHg | 0 in | - | - | - |
| 1788128127 | 82° F | 71% | 763 mmHg | 0 in | - | - | - |
| 1788127589 | 82° F | 73% | 762.7 mmHg | 0 in | - | - | - |
| 1788127048 | 82° F | 73% | 762.7 mmHg | 0 in | - | - | - |
| 1788126508 | 81° F | 73% | 762.7 mmHg | 0 in | - | - | - |
| 1788125968 | 82° F | 73% | 762.9 mmHg | 0 in | - | - | - |
| 1788125429 | 81° F | 77% | 763 mmHg | 0 in | - | - | - |
| 1788124888 | 80° F | 76% | 762.9 mmHg | 0 in | - | - | - |
| 1788124348 | 80° F | 77% | 763 mmHg | 0 in | - | - | - |
| 1788123808 | 79° F | 76% | 763 mmHg | 0 in | - | - | - |
* Rain latest hour (hover to see other rain measurements)
** Current wind speed in m/s (hover to see current wind gust speed)